Time,TemperatureF,DewpointF,PressureIn,WindDirection,WindDirectionDegrees,WindSpeedMPH,WindSpeedGustMPH,Humidity,HourlyPrecipIn,Conditions,Clouds,dailyrainin,SoftwareType,DateUTC
2013-01-03 00:03:00,10.0,1.0,30.08,ENE,67,0.0,0.0,66,0.00,,,0.00,,2013-01-03 05:03:00,
2013-01-03 00:12:00,11.0,2.0,30.08,ENE,67,0.0,0.0,66,0.00,,,0.00,,2013-01-03 05:12:00,
2013-01-03 00:23:00,11.0,2.0,30.08,ENE,67,0.0,0.0,66,0.00,,,0.00,,2013-01-03 05:23:00,
2013-01-03 00:33:00,11.0,2.0,30.08,ENE,67,0.0,0.0,66,0.00,,,0.00,,2013-01-03 05:33:00,
2013-01-03 00:42:00,11.0,2.0,30.08,ENE,67,0.0,0.0,66,0.00,,,0.00,,2013-01-03 05:42:00,
2013-01-03 00:53:00,10.0,1.0,30.07,ENE,67,0.0,0.0,67,0.00,,,0.00,,2013-01-03 05:53:00,
2013-01-03 01:02:00,11.0,2.0,30.06,ENE,67,0.0,0.0,67,0.00,,,0.00,,2013-01-03 06:02:00,
2013-01-03 01:12:00,11.0,2.0,30.06,ENE,67,0.0,0.0,67,0.00,,,0.00,,2013-01-03 06:12:00,
2013-01-03 01:22:00,11.0,3.0,30.06,ENE,67,0.0,0.0,68,0.00,,,0.00,,2013-01-03 06:22:00,
2013-01-03 01:33:00,11.0,3.0,30.05,ENE,67,0.0,0.0,68,0.00,,,0.00,,2013-01-03 06:33:00,
2013-01-03 01:42:00,11.0,3.0,30.05,ENE,67,0.0,0.0,68,0.00,,,0.00,,2013-01-03 06:42:00,
2013-01-03 01:53:00,11.0,3.0,30.05,ENE,67,0.0,0.0,68,0.00,,,0.00,,2013-01-03 06:53:00,
2013-01-03 02:02:00,11.0,3.0,30.05,ENE,67,0.0,0.0,68,0.00,,,0.00,,2013-01-03 07:02:00,
2013-01-03 02:12:00,11.0,3.0,30.05,ENE,67,0.0,0.0,68,0.00,,,0.00,,2013-01-03 07:12:00,
2013-01-03 02:22:00,11.0,3.0,30.05,ESE,112,0.0,3.0,69,0.00,,,0.00,,2013-01-03 07:22:00,
2013-01-03 02:33:00,11.0,3.0,30.05,SSE,157,0.0,3.0,69,0.00,,,0.00,,2013-01-03 07:33:00,
2013-01-03 02:42:00,11.0,3.0,30.05,SSE,157,0.0,3.0,69,0.00,,,0.00,,2013-01-03 07:42:00,
2013-01-03 02:53:00,11.0,3.0,30.05,SSE,157,0.0,3.0,69,0.00,,,0.00,,2013-01-03 07:53:00,
2013-01-03 03:02:00,11.0,3.0,30.05,SE,135,0.0,4.0,69,0.00,,,0.00,,2013-01-03 08:02:00,
2013-01-03 03:12:00,11.0,3.0,30.05,SE,135,0.0,4.0,69,0.00,,,0.00,,2013-01-03 08:12:00,
2013-01-03 03:22:00,11.0,3.0,30.05,ESE,112,0.0,3.0,69,0.00,,,0.00,,2013-01-03 08:22:00,
2013-01-03 03:33:00,12.0,4.0,30.04,SSE,157,0.0,4.0,70,0.00,,,0.00,,2013-01-03 08:33:00,
2013-01-03 03:43:00,12.0,4.0,30.04,SSE,157,0.0,4.0,70,0.00,,,0.00,,2013-01-03 08:43:00,
2013-01-03 03:53:00,12.0,4.0,30.04,SSE,157,2.0,3.0,70,0.00,,,0.00,,2013-01-03 08:53:00,
2013-01-03 04:02:00,12.0,4.0,30.03,ESE,112,1.0,5.0,70,0.00,,,0.00,,2013-01-03 09:02:00,
2013-01-03 04:12:00,12.0,4.0,30.03,ESE,112,1.0,5.0,70,0.00,,,0.00,,2013-01-03 09:12:00,
2013-01-03 04:22:00,12.0,4.0,30.02,SSE,157,0.0,4.0,70,0.00,,,0.00,,2013-01-03 09:22:00,
2013-01-03 04:33:00,12.0,4.0,30.02,SE,135,3.0,6.0,70,0.00,,,0.00,,2013-01-03 09:33:00,
2013-01-03 04:43:00,12.0,4.0,30.02,SE,135,3.0,6.0,70,0.00,,,0.00,,2013-01-03 09:43:00,
2013-01-03 04:53:00,13.0,5.0,30.02,SE,126,3.0,6.0,71,0.00,,,0.00,,2013-01-03 09:53:00,
2013-01-03 05:02:00,13.0,5.0,30.01,SE,135,1.0,2.0,71,0.00,,,0.00,,2013-01-03 10:02:00,
2013-01-03 05:12:00,13.0,5.0,30.01,SE,135,1.0,2.0,71,0.00,,,0.00,,2013-01-03 10:12:00,
2013-01-03 05:23:00,12.0,4.0,30.01,SE,135,1.0,3.0,71,0.00,,,0.00,,2013-01-03 10:23:00,
2013-01-03 05:33:00,12.0,4.0,30.00,ENE,64,2.0,3.0,71,0.00,,,0.00,,2013-01-03 10:33:00,
2013-01-03 05:43:00,12.0,4.0,30.00,ENE,64,2.0,3.0,71,0.00,,,0.00,,2013-01-03 10:43:00,
2013-01-03 05:53:00,11.0,4.0,30.00,NE,45,0.0,3.0,72,0.00,,,0.00,,2013-01-03 10:53:00,
2013-01-03 06:02:00,11.0,4.0,30.00,NE,45,0.0,0.0,73,0.00,,,0.00,,2013-01-03 11:02:00,
2013-01-03 06:12:00,11.0,4.0,30.00,NE,45,0.0,0.0,73,0.00,,,0.00,,2013-01-03 11:12:00,
2013-01-03 06:23:00,11.0,4.0,30.01,ENE,67,0.0,0.0,73,0.00,,,0.00,,2013-01-03 11:23:00,
2013-01-03 06:33:00,12.0,5.0,30.01,ENE,67,0.0,0.0,74,0.00,,,0.00,,2013-01-03 11:33:00,
2013-01-03 06:43:00,12.0,5.0,30.01,ENE,67,0.0,0.0,74,0.00,,,0.00,,2013-01-03 11:43:00,
2013-01-03 06:53:00,13.0,6.0,30.00,SE,135,0.0,0.0,74,0.00,,,0.00,,2013-01-03 11:53:00,
2013-01-03 07:03:00,14.0,8.0,30.00,ESE,112,0.0,1.0,75,0.00,,,0.00,,2013-01-03 12:03:00,
2013-01-03 07:12:00,14.0,8.0,30.00,ESE,112,0.0,1.0,75,0.00,,,0.00,,2013-01-03 12:12:00,
2013-01-03 07:22:00,14.0,8.0,29.99,SSW,202,0.0,1.0,75,0.00,,,0.00,,2013-01-03 12:22:00,
2013-01-03 07:33:00,15.0,9.0,29.99,WSW,241,2.0,5.0,76,0.00,,,0.00,,2013-01-03 12:33:00,
2013-01-03 07:42:00,15.0,9.0,29.99,WSW,241,2.0,5.0,76,0.00,,,0.00,,2013-01-03 12:42:00,
2013-01-03 07:53:00,16.0,10.0,30.01,SW,225,0.0,5.0,76,0.00,,,0.00,,2013-01-03 12:53:00,
2013-01-03 08:02:00,17.0,11.0,30.00,SSW,202,0.0,6.0,76,0.00,,,0.00,,2013-01-03 13:02:00,
2013-01-03 08:13:00,17.0,11.0,30.00,SSW,202,0.0,6.0,76,0.00,,,0.00,,2013-01-03 13:13:00,
2013-01-03 08:22:00,18.0,12.0,30.00,WSW,247,0.0,3.0,76,0.00,,,0.00,,2013-01-03 13:22:00,
2013-01-03 08:33:00,18.0,12.0,30.00,SW,225,2.0,4.0,76,0.00,,,0.00,,2013-01-03 13:33:00,
2013-01-03 08:42:00,18.0,12.0,30.00,SW,225,2.0,4.0,76,0.00,,,0.00,,2013-01-03 13:42:00,
2013-01-03 08:53:00,19.0,13.0,29.99,South,180,0.0,5.0,76,0.00,,,0.00,,2013-01-03 13:53:00,
2013-01-03 09:03:00,20.0,14.0,30.00,SSW,202,0.0,3.0,76,0.00,,,0.00,,2013-01-03 14:03:00,
2013-01-03 09:12:00,20.0,14.0,30.00,SSW,202,0.0,3.0,76,0.00,,,0.00,,2013-01-03 14:12:00,
2013-01-03 09:23:00,21.0,14.0,30.00,SSW,202,0.0,0.0,75,0.00,,,0.00,,2013-01-03 14:23:00,
2013-01-03 09:33:00,22.0,15.0,29.99,SSW,202,0.0,0.0,75,0.00,,,0.00,,2013-01-03 14:33:00,
2013-01-03 09:42:00,22.0,15.0,29.99,SSW,202,0.0,0.0,75,0.00,,,0.00,,2013-01-03 14:42:00,
2013-01-03 09:53:00,24.0,17.0,29.99,SW,225,2.0,5.0,74,0.00,,,0.00,,2013-01-03 14:53:00,
2013-01-03 10:03:00,24.0,17.0,29.99,WSW,240,2.0,4.0,73,0.00,,,0.00,,2013-01-03 15:03:00,
2013-01-03 10:12:00,25.0,17.0,29.99,SW,225,2.0,4.0,72,0.00,,,0.00,,2013-01-03 15:12:00,
2013-01-03 10:23:00,25.0,17.0,29.99,SW,225,2.0,4.0,72,0.00,,,0.00,,2013-01-03 15:23:00,
2013-01-03 10:33:00,25.0,17.0,29.99,SSW,197,2.0,5.0,72,0.00,,,0.00,,2013-01-03 15:33:00,
2013-01-03 10:43:00,25.0,17.0,29.99,SSW,197,2.0,5.0,72,0.00,,,0.00,,2013-01-03 15:43:00,
2013-01-03 10:53:00,27.0,19.0,29.99,WSW,240,3.0,5.0,71,0.00,,,0.00,,2013-01-03 15:53:00,
2013-01-03 11:03:00,28.0,19.0,29.99,WSW,242,4.0,9.0,69,0.00,,,0.00,,2013-01-03 16:03:00,
2013-01-03 11:12:00,28.0,19.0,29.99,WSW,242,4.0,9.0,69,0.00,,,0.00,,2013-01-03 16:12:00,
2013-01-03 11:23:00,28.0,19.0,29.98,WSW,251,4.0,7.0,69,0.00,,,0.00,,2013-01-03 16:23:00,
2013-01-03 11:33:00,29.0,19.0,29.98,SW,230,6.0,10.0,67,0.00,,,0.00,,2013-01-03 16:33:00,
2013-01-03 11:43:00,29.0,19.0,29.98,SW,230,6.0,10.0,67,0.00,,,0.00,,2013-01-03 16:43:00,
2013-01-03 11:53:00,29.0,19.0,29.97,WSW,257,3.0,9.0,67,0.00,,,0.00,,2013-01-03 16:53:00,
2013-01-03 12:03:00,29.0,19.0,29.96,WSW,237,3.0,11.0,66,0.00,,,0.00,,2013-01-03 17:03:00,
2013-01-03 12:12:00,29.0,19.0,29.96,WSW,237,3.0,11.0,66,0.00,,,0.00,,2013-01-03 17:12:00,
2013-01-03 12:23:00,30.0,19.0,29.96,WSW,240,4.0,11.0,64,0.00,,,0.00,,2013-01-03 17:23:00,
2013-01-03 12:33:00,29.0,19.0,29.94,SW,227,3.0,5.0,65,0.00,,,0.00,,2013-01-03 17:33:00,
2013-01-03 12:43:00,29.0,19.0,29.94,SW,227,3.0,5.0,65,0.00,,,0.00,,2013-01-03 17:43:00,
2013-01-03 12:53:00,29.0,19.0,29.93,SW,231,5.0,11.0,65,0.00,,,0.00,,2013-01-03 17:53:00,
2013-01-03 13:03:00,29.0,19.0,29.92,WSW,251,5.0,9.0,66,0.00,,,0.00,,2013-01-03 18:03:00,
2013-01-03 13:13:00,29.0,19.0,29.92,WSW,251,5.0,9.0,66,0.00,,,0.00,,2013-01-03 18:13:00,
2013-01-03 13:22:00,29.0,19.0,29.91,SW,218,7.0,10.0,66,0.00,,,0.00,,2013-01-03 18:22:00,
2013-01-03 13:33:00,28.0,18.0,29.90,SW,234,4.0,10.0,66,0.00,,,0.00,,2013-01-03 18:33:00,
2013-01-03 13:43:00,28.0,18.0,29.90,SW,234,4.0,10.0,66,0.00,,,0.00,,2013-01-03 18:43:00,
2013-01-03 13:53:00,29.0,19.0,29.90,West,263,3.0,8.0,67,0.00,,,0.00,,2013-01-03 18:53:00,
2013-01-03 14:03:00,29.0,19.0,29.90,WSW,246,5.0,9.0,67,0.00,,,0.00,,2013-01-03 19:03:00,
2013-01-03 14:12:00,29.0,19.0,29.90,WSW,246,5.0,9.0,67,0.00,,,0.00,,2013-01-03 19:12:00,
2013-01-03 14:56:00,28.0,19.0,29.89,SW,219,3.0,8.0,68,0.00,,,0.00,,2013-01-03 19:56:00,
2013-01-03 15:03:00,27.0,19.0,29.88,WSW,258,3.0,11.0,70,0.00,,,0.00,,2013-01-03 20:03:00,
2013-01-03 15:13:00,27.0,19.0,29.88,WSW,258,3.0,11.0,70,0.00,,,0.00,,2013-01-03 20:13:00,
2013-01-03 15:22:00,27.0,19.0,29.88,SW,227,6.0,9.0,70,0.00,,,0.00,,2013-01-03 20:22:00,
2013-01-03 15:33:00,27.0,19.0,29.88,SW,218,4.0,7.0,70,0.00,,,0.00,,2013-01-03 20:33:00,
2013-01-03 15:42:00,27.0,19.0,29.88,SW,218,4.0,7.0,70,0.00,,,0.00,,2013-01-03 20:42:00,
2013-01-03 15:53:00,27.0,19.0,29.88,SW,225,5.0,12.0,70,0.00,,,0.00,,2013-01-03 20:53:00,
2013-01-03 16:02:00,26.0,18.0,29.88,SW,235,3.0,10.0,70,0.00,,,0.00,,2013-01-03 21:02:00,
2013-01-03 16:12:00,26.0,18.0,29.88,SW,235,3.0,10.0,70,0.00,,,0.00,,2013-01-03 21:12:00,
2013-01-03 16:23:00,26.0,18.0,29.87,SSW,199,2.0,9.0,71,0.00,,,0.00,,2013-01-03 21:23:00,
2013-01-03 16:36:00,26.0,18.0,29.87,SW,234,5.0,13.0,71,0.00,,,0.00,,2013-01-03 21:36:00,
2013-01-03 16:48:00,26.0,18.0,29.87,SW,234,5.0,13.0,71,0.00,,,0.00,,2013-01-03 21:48:00,
2013-01-03 17:03:00,26.0,18.0,29.88,WSW,246,5.0,9.0,72,0.00,,,0.00,,2013-01-03 22:03:00,
2013-01-03 17:12:00,26.0,18.0,29.88,WSW,246,5.0,9.0,72,0.00,,,0.00,,2013-01-03 22:12:00,
2013-01-03 17:22:00,25.0,18.0,29.88,WSW,245,4.0,14.0,73,0.00,,,0.00,,2013-01-03 22:22:00,
2013-01-03 17:33:00,25.0,18.0,29.87,WSW,239,5.0,8.0,74,0.00,,,0.00,,2013-01-03 22:33:00,
2013-01-03 17:42:00,25.0,18.0,29.87,WSW,239,5.0,8.0,74,0.00,,,0.00,,2013-01-03 22:42:00,
2013-01-03 17:53:00,25.0,18.0,29.88,WSW,237,4.0,10.0,75,0.00,,,0.00,,2013-01-03 22:53:00,
2013-01-03 18:03:00,25.0,19.0,29.89,SW,235,4.0,7.0,76,0.00,,,0.00,,2013-01-03 23:03:00,
2013-01-03 18:12:00,25.0,19.0,29.89,SW,235,4.0,7.0,76,0.00,,,0.00,,2013-01-03 23:12:00,
2013-01-03 18:22:00,25.0,19.0,29.88,SW,233,5.0,11.0,77,0.00,,,0.00,,2013-01-03 23:22:00,
2013-01-03 18:33:00,25.0,19.0,29.88,WSW,238,4.0,9.0,77,0.00,,,0.00,,2013-01-03 23:33:00,
2013-01-03 18:43:00,25.0,19.0,29.88,WSW,238,4.0,9.0,77,0.00,,,0.00,,2013-01-03 23:43:00,
2013-01-03 18:53:00,26.0,20.0,29.88,SW,234,5.0,10.0,77,0.00,,,0.00,,2013-01-03 23:53:00,
2013-01-03 19:03:00,26.0,20.0,29.88,WSW,243,5.0,14.0,77,0.00,,,0.00,,2013-01-04 00:03:00,
2013-01-03 19:12:00,26.0,20.0,29.88,WSW,243,5.0,14.0,77,0.00,,,0.00,,2013-01-04 00:12:00,
2013-01-03 19:22:00,26.0,20.0,29.87,WSW,240,5.0,10.0,77,0.00,,,0.00,,2013-01-04 00:22:00,
2013-01-03 19:32:00,26.0,20.0,29.88,WSW,252,4.0,11.0,77,0.00,,,0.00,,2013-01-04 00:32:00,
2013-01-03 19:42:00,26.0,20.0,29.88,WSW,252,4.0,11.0,77,0.00,,,0.00,,2013-01-04 00:42:00,
2013-01-03 19:53:00,26.0,20.0,29.88,SW,230,3.0,10.0,77,0.00,,,0.00,,2013-01-04 00:53:00,
2013-01-03 20:02:00,27.0,20.0,29.89,WSW,256,2.0,8.0,76,0.00,,,0.00,,2013-01-04 01:02:00,
2013-01-03 20:12:00,27.0,20.0,29.89,WSW,256,2.0,8.0,76,0.00,,,0.00,,2013-01-04 01:12:00,
2013-01-03 20:22:00,27.0,20.0,29.88,WSW,256,3.0,9.0,76,0.00,,,0.00,,2013-01-04 01:22:00,
2013-01-03 20:33:00,27.0,21.0,29.88,WSW,247,4.0,9.0,77,0.00,,,0.00,,2013-01-04 01:33:00,
2013-01-03 20:42:00,27.0,21.0,29.88,WSW,247,4.0,9.0,77,0.00,,,0.00,,2013-01-04 01:42:00,
2013-01-03 20:53:00,27.0,21.0,29.88,SW,233,5.0,11.0,77,0.00,,,0.00,,2013-01-04 01:53:00,
2013-01-03 21:02:00,28.0,21.0,29.88,WSW,238,5.0,13.0,76,0.00,,,0.00,,2013-01-04 02:02:00,
2013-01-03 21:12:00,28.0,21.0,29.88,WSW,238,5.0,13.0,76,0.00,,,0.00,,2013-01-04 02:12:00,
2013-01-03 21:22:00,28.0,22.0,29.88,WSW,253,6.0,13.0,77,0.00,,,0.00,,2013-01-04 02:22:00,
2013-01-03 21:32:00,28.0,22.0,29.89,WSW,251,4.0,11.0,77,0.00,,,0.00,,2013-01-04 02:32:00,
2013-01-03 21:42:00,28.0,22.0,29.89,WSW,251,4.0,11.0,77,0.00,,,0.00,,2013-01-04 02:42:00,
2013-01-03 21:53:00,28.0,22.0,29.89,West,270,5.0,11.0,77,0.00,,,0.00,,2013-01-04 02:53:00,
2013-01-03 22:03:00,28.0,22.0,29.90,WSW,244,3.0,7.0,77,0.00,,,0.00,,2013-01-04 03:03:00,
2013-01-03 22:12:00,28.0,22.0,29.90,WSW,244,3.0,7.0,77,0.00,,,0.00,,2013-01-04 03:12:00,
2013-01-03 22:22:00,28.0,22.0,29.90,West,263,4.0,9.0,78,0.00,,,0.00,,2013-01-04 03:22:00,
2013-01-03 22:32:00,28.0,22.0,29.90,WSW,251,5.0,9.0,78,0.00,,,0.00,,2013-01-04 03:32:00,
2013-01-03 22:42:00,28.0,22.0,29.90,WSW,251,5.0,9.0,78,0.00,,,0.00,,2013-01-04 03:42:00,
2013-01-03 22:53:00,28.0,22.0,29.90,WSW,238,3.0,11.0,78,0.00,,,0.00,,2013-01-04 03:53:00,
2013-01-03 23:02:00,28.0,22.0,29.90,West,261,6.0,12.0,78,0.00,,,0.00,,2013-01-04 04:02:00,
2013-01-03 23:12:00,28.0,22.0,29.90,West,261,6.0,12.0,78,0.00,,,0.00,,2013-01-04 04:12:00,
2013-01-03 23:22:00,28.0,22.0,29.91,West,272,4.0,9.0,78,0.00,,,0.00,,2013-01-04 04:22:00,
2013-01-03 23:32:00,28.0,22.0,29.91,WSW,249,5.0,12.0,78,0.00,,,0.00,,2013-01-04 04:32:00,
2013-01-03 23:42:00,28.0,22.0,29.91,WSW,249,5.0,12.0,78,0.00,,,0.00,,2013-01-04 04:42:00,
2013-01-03 23:52:00,28.0,22.0,29.90,WNW,298,3.0,11.0,78,0.00,,,0.00,,2013-01-04 04:52:00,